COMPLETED DISPATCHED CALLS FOR SERVICE

Welcome to the Jacksonville Sheriff’s Office Completed Dispatched Calls for Service webpage. This page displays calls for service made to the Jacksonville Sheriff's Office that have recently been completed. The data on this page is refreshed automatically.

This information is not intended to be used as official crime data. This program does not provide information about all crimes, and excludes specific incidents such as sexual assaults and child abuse.

Disclaimer: The Jacksonville Sheriff's Office makes every effort to produce and publish current and accurate information. No warranties, expressed or implied, are provided for the data herein, its use, or its interpretation. The services provided are for informational purposes only and should not be relied on for any type of legal action.

Last refreshed 12/11 02:52:33

Incident # Dispatched Block Address Signal Call Description  
161211818480 12-11 02:43 HARTSFIELD RD AND ABBEYFIELD DR 3 HIT AND RUN CRASH
161211818493 12-11 02:41 S I295 EXPWY AND BAYMEADOWS RD 1050 TRAFFIC STOP
161211818491 12-11 02:40 PARK ST AND FOREST ST 1050 TRAFFIC STOP
161211818478 12-11 02:32 POST ST AND MARGARET ST 1050 TRAFFIC STOP
161211818475 12-11 02:28 ARLINGTON RD AND ROGERO RD 13 SUSPICIOUS PERSON
161211818466 12-11 02:27 2900 JUSTINA RD 63 DISPUTE
161211818463 12-11 02:23 800 COPELAND ST 13 SUSPICIOUS PERSON
161211818460 12-11 02:21 MARTIN LUTHER KING JR PKWY AND PHOENIX AVE 1050 TRAFFIC STOP
161211818457 12-11 02:18 7900 NEW KINGS RD 64 NOISE COMPLAINT
161211818453 12-11 02:14 500 N OCEAN ST 1066 CANCEL
161211818415 12-11 02:09 5900 FT CAROLINE RD 64 NOISE COMPLAINT
161211818448 12-11 02:08 300 A PHILIP RANDOLPH BLVD 13 SUSPICIOUS PERSON
161211818405 12-11 02:08 13200 ATLANTIC BLVD 6388 DISPUTE WITH ASSAULT
161211818446 12-11 02:07 BROWARD/BELLE SHORE 1050 TRAFFIC STOP
161211818444 12-11 02:06 8900 OXFORDSHIRE DR 13 SUSPICIOUS PERSON
161211818439 12-11 02:06 6900 MORSE AVE 2 63 DISPUTE IMPAIRED/INTOXICATED
161211818430 12-11 02:05 6900 MORSE AVE 22 DOMESTIC
161211818431 12-11 02:05 6800 TOWNSEND RD 33 DISCHARGING OF FIREARM
161211818432 12-11 02:03 1600 LANDAU RD 61 FIGHT
161211818438 12-11 02:01 100 W UNION ST 13 SUSPICIOUS PERSON
161211818395 12-11 01:57 LAVIERE ST AND CHERRY ST 64 NOISE COMPLAINT
161211818427 12-11 01:54 9100 BEAVER ST 2 IMPAIRED/INTOXICATED
161211818419 12-11 01:52 11800 ALDEN RD 1066 CANCEL
161211818411 12-11 01:50 WOODMERE DR AND ST JOHNS AVE 64 NOISE COMPLAINT
161211818409 12-11 01:50 10500 SAN JOSE BLVD 1 IMPAIRED/DRUNK DRIVER
161211818414 12-11 01:49 9300 103RD ST 13 SUSPICIOUS PERSON
161211818422 12-11 01:48 ATLANTIC BLVD AND BARTRAM RD 1050 TRAFFIC STOP
161211818418 12-11 01:47 3600 S ST JOHNS BLUFF RD 5388 ASSAULT INVOLVING INJURY
161211818417 12-11 01:46 900 N ARLINGTON RD 63 DISPUTE
161211818401 12-11 01:45 4000 W SHERMAN HILLS PKWY 64 NOISE COMPLAINT
161211818356 12-11 01:35 1100 RIO ST JOHNS DR 33 DISCHARGING OF FIREARM
161211818388 12-11 01:33 6900 WILEY RD 63 DISPUTE
161211818322 12-11 01:33 1800 CASSAT AVE 3 HIT AND RUN CRASH
161211818404 12-11 01:33 BROWARD/NEWBERRY 1050 TRAFFIC STOP
161211818379 12-11 01:31 2100 JAMES HALL DR 22 DOMESTIC
161211818394 12-11 01:27 5700 IRIS BLVD 49 REPORT TO HOSPITAL
161211818389 12-11 01:21 100 E MATHEWS BRG 1050 TRAFFIC STOP
161211818363 12-11 01:19 1900 DEBUTANTE DR 64 NOISE COMPLAINT
161211818368 12-11 01:18 7000 S OLD KINGS RD 73 DRUG INVESTIGATION
161211818377 12-11 01:18 13400 ESSENCE CT 16 ROAD OBSTRUCTION
161211818382 12-11 01:12 HARTS/DUNN 1050 TRAFFIC STOP
161211818280 12-11 01:08 100 N PEARL ST 27 MENTALLY ILL PERSON
161211818373 12-11 01:08 BULLS BAY HWY AND PRITCHARD RD 12 RECKLESS DRIVER
161211818355 12-11 01:07 6700 BARNEY RD 63 DISPUTE
161211818374 12-11 01:07 N I95 EXPWY AND MARTIN LUTHER KING JR PKWY 1050 TRAFFIC STOP
161211818371 12-11 01:06 11000 ARROWBROOK LN 3 HIT AND RUN CRASH
161211818268 12-11 01:06 600 E ADAMS ST 2 63 DISPUTE IMPAIRED/INTOXICATED
161211818372 12-11 01:05 SAHARA CT AND CARAVAN CIR 1050 TRAFFIC STOP
161211818323 12-11 01:02 1000 RIVERSIDE AVE 0 63 ARMED DISPUTE
161211818365 12-11 01:01 W 25TH ST AND STUART ST 0 63 ARMED DISPUTE
161211818367 12-11 01:01 6200 MERRILL RD 63 DISPUTE
161211818354 12-11 00:58 9700 DEER LAKE CT 64 NOISE COMPLAINT
161210818254 12-11 00:58 N OCEAN ST AND E BAY ST 11 ABANDONED VEHICLE
161211818332 12-11 00:56 7600 OLD PLANK RD 2 63 DISPUTE IMPAIRED/INTOXICATED
161211818339 12-11 00:56 6800 COMMONWEALTH AVE 64 NOISE COMPLAINT
161211818360 12-11 00:56 ATLANTIC BLVD AND ARLINGTON EXPWY 1050 TRAFFIC STOP
161211818318 12-11 00:53 5200 S DOSTIE DR 8 MISSING PERSON
161211818342 12-11 00:53 800 BERT RD 63 DISPUTE
161211818301 12-11 00:52 5200 NORWOOD AVE 70 COUNTERFEIT
161211818350 12-11 00:52 YELLOW BLUFF RD AND VICTORIA LAKES DR 16 ROAD OBSTRUCTION
161211818351 12-11 00:52 5600 BOWDEN RD 96 ASSIST MOTORIST
161211818347 12-11 00:51 ROGERO RD AND MERRILL RD 0 13 ARMED SUSPICIOUS PERSON
161211818343 12-11 00:51 3500 STUART ST 60 SUICIDE OR ATTEMPT
161211818349 12-11 00:51 BEACH BLVD AND S I295 EXPWY 1050 TRAFFIC STOP
161211818286 12-11 00:48 LONGCHAMP DR AND CLUB DUCLAY DR 4 AUTO CRASH
161211818337 12-11 00:47 1100 WALNUT ST 64 NOISE COMPLAINT
161211818321 12-11 00:47 12900 OLD ST AUGUSTINE RD 27 MENTALLY ILL PERSON
161211818338 12-11 00:46 7800 E CAXTON CIR 1066 CANCEL
161211818333 12-11 00:43 4700 PINEDALE AVE 57 PERSON CALLING FOR HELP
161211818334 12-11 00:42 MELVIN RD AND RICKER RD 4 AUTO CRASH
161211818331 12-11 00:40 7700 S CRANBERRY LN 1050 TRAFFIC STOP
161211818327 12-11 00:38 N I95 EXPWY AND MARTIN LUTHER KING JR PKWY 1050 TRAFFIC STOP
161211818319 12-11 00:36 500 S LANE AVE 76 ASSIST OTHER AGENCY
161211818310 12-11 00:36 5900 CHARLES D EVERS DR 2 63 DISPUTE IMPAIRED/INTOXICATED
161211818293 12-11 00:35 7400 POWERS AVE 22 DOMESTIC
161211818299 12-11 00:34 100 OAKLEAF VILLAGE PKWY 13 SUSPICIOUS PERSON
161211818307 12-11 00:34 4700 FRENCH ST 64 NOISE COMPLAINT
161211818302 12-11 00:33 1000 WINTHROP ST 64 NOISE COMPLAINT
161211818314 12-11 00:30 PLYMOUTH ST AND MOHAWK ST 4 AUTO CRASH
161211818313 12-11 00:30 9000 PRITCHARD RD 12 RECKLESS DRIVER
161211818311 12-11 00:29 BLANK/RICK 1050 TRAFFIC STOP
161211818308 12-11 00:26 FT CAROLINE RD AND N ST JOHNS BLUFF RD 1050 TRAFFIC STOP
161211818305 12-11 00:25 400 TROUT RIVER DR 88P ASSAULT IN PROGRESS
161211818298 12-11 00:23 2800 ROBERT ST 14RP VANDALISM RESIDENCE IN PROGRESS
161211818303 12-11 00:21 W 21ST ST AND N PEARL ST 1050 TRAFFIC STOP
161211818300 12-11 00:19 2600 COLLEGE ST 1050 TRAFFIC STOP
161211818290 12-11 00:15 12700 AGATITE RD 63 DISPUTE
161210818237 12-11 00:15 1100 S EDGEWOOD AVE 63 DISPUTE
161210818232 12-11 00:15 12500 AGATITE RD 4 AUTO CRASH
161211818282 12-11 00:15 2300 JAMMES RD 63 DISPUTE
161211818289 12-11 00:14 1500 E 22ND ST 0 13 ARMED SUSPICIOUS PERSON
161211818281 12-11 00:13 10000 103RD ST 37 UNVERIFIED 911 CALL
161211818271 12-11 00:12 10500 AIRPORT TERRACE DR 23I ROBBERY INDIVIDUAL
161211818279 12-11 00:08 BROADWAY AVE AND N LANE AVE 1066 CANCEL
161211818278 12-11 00:07 S I295 EXPWY AND 103RD ST 1050 TRAFFIC STOP
161210818235 12-11 00:07 2900 POST ST 63 DISPUTE
161211818276 12-11 00:06 I 295 SB/ALTA 1050 TRAFFIC STOP
161210818242 12-11 00:01 1500 PICKETTVILLE RD 3 HIT AND RUN CRASH
161211818266 12-11 00:01 3000 CORONET LN 64 NOISE COMPLAINT
161211818265 12-11 00:00 S I295 EXPWY AND ROOSEVELT BLVD 4 25 CRASH W/FIRE
161211818261 12-11 00:00 N I295 EXPWY AND BLANDING BLVD 4 25 CRASH W/FIRE
161211818264 12-11 00:00 I295/ROOS 25 FIRE/EXPLOSION
161210818213 12-10 23:59 5500 118TH ST 64 NOISE COMPLAINT
161210818256 12-10 23:59 1500 LOUISIANA ST 8 MISSING PERSON
161210818258 12-10 23:58 POST ST AND ACOSTA ST 1050 TRAFFIC STOP
161210818257 12-10 23:57 3600 N MAIN ST 3 HIT AND RUN CRASH
161210818251 12-10 23:57 3100 2ND STREET CIR 13 SUSPICIOUS PERSON
161210818229 12-10 23:55 8200 PHILLIPS HWY 2 63 DISPUTE IMPAIRED/INTOXICATED
161210818253 12-10 23:53 100 N DAMES POINT BRG 96 ASSIST MOTORIST
161210818247 12-10 23:52 9700 TAPESTRY PARK CIR 63 DISPUTE
161210818231 12-10 23:52 700 SKYMARKS DR 63 DISPUTE
161210818249 12-10 23:49 I 95 NB/MAX LEGGETT 1050 TRAFFIC STOP
161210818241 12-10 23:49 400 N HOGAN ST 13 SUSPICIOUS PERSON
161210818248 12-10 23:48 POST ST AND ACOSTA ST 1050 TRAFFIC STOP
161210818244 12-10 23:45 8700 NEWTON RD 96 ASSIST MOTORIST
161210818240 12-10 23:44 JAMMES RD AND TOWNSEND RD 1050 TRAFFIC STOP
161210818223 12-10 23:44 3100 N EDGEWOOD AVE 63 DISPUTE
161210818234 12-10 23:41 5700 PARIS AVE 13 SUSPICIOUS PERSON
161210818236 12-10 23:41 E 8TH ST AND FLORIDA AVE 1050 TRAFFIC STOP
161210818230 12-10 23:40 8200 W OAK CROSSING DR 21RJ BURGLARY RESIDENCE JUST OCCURRED
161210818233 12-10 23:40 SAN JOSE BLVD AND HARTLEY RD 1050 TRAFFIC STOP
161210818205 12-10 23:37 2600 UNIVERSITY BLVD 0 13 ARMED SUSPICIOUS PERSON
161210818228 12-10 23:36 BEACH BLVD AND S ST JOHNS BLUFF RD 1050 TRAFFIC STOP
161210818226 12-10 23:35 8200 N DAMES POINT CROSSING BLVD 13 SUSPICIOUS PERSON
161210818225 12-10 23:33 S KERNAN BLVD AND AUTUMN CREST BLVD 1050 TRAFFIC STOP
161210818224 12-10 23:33 14500 MANDARIN RD 13 SUSPICIOUS PERSON
161210818222 12-10 23:31 W 45TH ST AND MONCRIEF RD 1050 TRAFFIC STOP
161210818221 12-10 23:31 MARTIN LUTHER KING JR PKWY AND E 8TH ST 1050 TRAFFIC STOP
161210818216 12-10 23:29 BLANDING BLVD AND MORSE AVE 1050 TRAFFIC STOP
161210818214 12-10 23:28 S BASS PL AND HUNTINGTON RD 1050 TRAFFIC STOP
161210818209 12-10 23:26 BEACH BLVD AND BEACHWOOD BLVD 1050 TRAFFIC STOP
161210818207 12-10 23:26 6900 103RD ST 63 DISPUTE
161210818206 12-10 23:25 2600 COLLEGE ST 1050 TRAFFIC STOP
161210818204 12-10 23:24 POST ST AND JAMES ST 1050 TRAFFIC STOP
161210818199 12-10 23:21 LANE/LONDON 1050 TRAFFIC STOP
161210818198 12-10 23:20 S KERNAN BLVD AND ATLANTIC BLVD 1050 TRAFFIC STOP
161210818157 12-10 23:18 3200 ROSSELLE ST 22 DOMESTIC
161210818195 12-10 23:17 KING ST AND COLLEGE ST 1050 TRAFFIC STOP
161210818192 12-10 23:17 LENOX AVE AND S LANE AVE 4 AUTO CRASH
161210818180 12-10 23:16 E FORSYTH ST AND N OCEAN ST 16 ROAD OBSTRUCTION
161210818187 12-10 23:15 N PEARL ST AND W 18TH ST 80 PROSTITUTION (ONLY)
161210818172 12-10 23:15 600 W 8TH ST 2 22 DOMESTIC DISTURBANCE
161210818190 12-10 23:14 N I295 EXPWY AND PULASKI RD 76 ASSIST OTHER AGENCY
161210818183 12-10 23:12 5000 N PEARL ST 22 DOMESTIC
161210818177 12-10 23:12 8700 SOUTHSIDE BLVD 64 NOISE COMPLAINT
161210818184 12-10 23:11 9800 NORFOLK BLVD 13 SUSPICIOUS PERSON
161210818179 12-10 23:10 7200 ADELE CT 33 DISCHARGING OF FIREARM
161210818182 12-10 23:09 SAN JOSE BLVD AND CLAIRE LN 1050 TRAFFIC STOP
161210818178 12-10 23:09 1700 E TIFFANY PINES CIR 13 SUSPICIOUS PERSON
161210818176 12-10 23:08 2600 COLLEGE ST 1050 TRAFFIC STOP
161210818171 12-10 23:08 W UNIVERSITY BLVD AND SPRING PARK RD 4 AUTO CRASH
161210818089 12-10 23:08 10200 WHISPERING FOREST DR 64 NOISE COMPLAINT
161210818170 12-10 23:06 S SR9B EXPWY AND N I295 EXPWY 1050 TRAFFIC STOP
161210818169 12-10 23:04 POST ST AND ACOSTA ST 1050 TRAFFIC STOP
161210818151 12-10 23:04 1600 BOULEVARD 64 NOISE COMPLAINT
161210818165 12-10 23:04 SHINDLER DR AND COLLINS RD 4 AUTO CRASH
161210818154 12-10 23:03 3300 DREW ST 64 NOISE COMPLAINT
161210818166 12-10 23:02 2700 COLLEGE ST 1050 TRAFFIC STOP
161210818164 12-10 23:01 OAKLEAF PLANTATION PKWY AND CECIL COMMERCE CENTER PKWY 1050 TRAFFIC STOP
161210818161 12-10 22:59 1600 SAMONTEE RD 1050 TRAFFIC STOP
161210818146 12-10 22:59 4200 DUNN AVE 9J THEFT JUST OCCURRED
161210818156 12-10 22:59 5300 SAGINAW AVE 37 UNVERIFIED 911 CALL
161210818132 12-10 22:58 3000 S BEAUCLERC OAKS DR 64 NOISE COMPLAINT
161210818158 12-10 22:56 2600 COLL 1050 TRAFFIC STOP
161210818155 12-10 22:55 9800 CRYSTAL SPRINGS RD 13 SUSPICIOUS PERSON
161210818150 12-10 22:53 POST ST AND ACOSTA ST 1050 TRAFFIC STOP
161210818149 12-10 22:53 1200 DUNN AVE 1050 TRAFFIC STOP
161210818148 12-10 22:53 8300 S LAWFIN ST 90 FIREWORKS
161210818145 12-10 22:53 14700 STACEY RD 64 NOISE COMPLAINT
161210818128 12-10 22:53 3500 FORMOSA DR 64 NOISE COMPLAINT
161210818141 12-10 22:53 1500 KINGS RD 63 DISPUTE
161210818147 12-10 22:52 POST ST AND KING ST 1050 TRAFFIC STOP
161210818143 12-10 22:52 200 W WATER ST 4 AUTO CRASH
161210818142 12-10 22:50 CESERY BLVD AND S TERRY PARKER DR 1050 TRAFFIC STOP
161210818139 12-10 22:49 500 LANE AVE 2 63 DISPUTE IMPAIRED/INTOXICATED
161210818138 12-10 22:49 2400 RIDGE WILL DR 63 DISPUTE
161210818116 12-10 22:49 9200 HAWKS HAVEN CT 64 NOISE COMPLAINT
161210818130 12-10 22:48 PEARCE ST AND W 6TH ST 1066 CANCEL
161210818108 12-10 22:47 3800 S UNIVERSITY BLVD 33 DISCHARGING OF FIREARM
161210818137 12-10 22:46 2900 POST ST 1050 TRAFFIC STOP
161210818032 12-10 22:44 11700 CAPE HORN AVE 64 NOISE COMPLAINT
161210818075 12-10 22:43 5200 S DOSTIE DR 8 MISSING PERSON
161210818064 12-10 22:43 7700 JASPER AVE 64 NOISE COMPLAINT
161210818124 12-10 22:42 1700 N PEARL ST 63 DISPUTE
161210818129 12-10 22:42 2200 DUNN AVE 13 SUSPICIOUS PERSON
161210818109 12-10 22:42 5800 EDENFIELD RD 63 DISPUTE
161210818082 12-10 22:41 7700 LEM TURNER RD 22 DOMESTIC
161210818125 12-10 22:40 8200 W PRINCETON SQUARE BLVD 22 DOMESTIC
161210818102 12-10 22:38 3700 B WARD ST 63 DISPUTE
161210818113 12-10 22:38 VILLAGE LN AND CECIL ST 64 NOISE COMPLAINT
161210818123 12-10 22:37 3000 PLYMOUTH ST 13 SUSPICIOUS PERSON
161210818122 12-10 22:35 8000 E BAYMEADOWS RD 13 SUSPICIOUS PERSON
161210818120 12-10 22:33 ST JOHNS AVE AND ROOSEVELT BLVD 1050 TRAFFIC STOP
161210818118 12-10 22:32 S LANE AVE AND E I10 EXPWY 1050 TRAFFIC STOP
161210818067 12-10 22:32 8300 S BROOKMONT AVE 54 ILLEGALLY PARKED CAR
161210818115 12-10 22:31 COLLINS RD AND STAR RUSH DR 1050 TRAFFIC STOP
161210818114 12-10 22:31 W BEAVER ST AND ACORN ST 13 SUSPICIOUS PERSON
161210818112 12-10 22:31 N REGENCY SQUARE BLVD AND COMMERCE CENTER DR 1050 TRAFFIC STOP
161210818110 12-10 22:31 700 WATERBIRD LN 8 MISSING PERSON
161210818085 12-10 22:30 9500 CROSSHILL BLVD 9 THEFT
161210818091 12-10 22:28 ROOSEVELT BLVD AND S MC DUFF AVE 96 ASSIST MOTORIST
161210818093 12-10 22:28 8800 BEACH BLVD 56 JUVENILE COMPLAINT
161210818104 12-10 22:27 1000 W 24TH ST 1050 TRAFFIC STOP
161210818096 12-10 22:26 7300 S AMANDAS CROSSING DR 54 ILLEGALLY PARKED CAR
161210818101 12-10 22:25 1000 W 24TH ST 12 RECKLESS DRIVER
161210818099 12-10 22:24 11300 N MAIN ST 76 ASSIST OTHER AGENCY
161210818092 12-10 22:24 3300 W 20TH ST 60 SUICIDE OR ATTEMPT
161210818097 12-10 22:23 HARLOW BLVD AND S MOTHER HUBBARD DR 1050 TRAFFIC STOP
161210818090 12-10 22:22 N BEALL AVE AND GILLESPIE AVE 64 NOISE COMPLAINT
161210818095 12-10 22:22 1000 W 24TH ST 0 ARMED
161210818094 12-10 22:22 N MAIN ST AND E 27TH ST 1050 TRAFFIC STOP
161210818070 12-10 22:22 1300 WOLFE ST 1066 CANCEL
161210818051 12-10 22:21 4500 REEDBARK LN 64 NOISE COMPLAINT
161210818084 12-10 22:19 5800 EDENFIELD RD 63 DISPUTE
161210818083 12-10 22:17 1400 WINNEBAGO AVE 64 NOISE COMPLAINT
161210818059 12-10 22:13 10100 103RD ST 22 DOMESTIC
161210818047 12-10 22:13 7200 LONGLEAF BRANCH DR 63 DISPUTE
161210818068 12-10 22:12 10200 BELLE RIVE BLVD 64 NOISE COMPLAINT
161210818074 12-10 22:11 BEACH BLVD AND CORTEZ RD 1050 TRAFFIC STOP
161210818073 12-10 22:11 GOLD/YORK 13 SUSPICIOUS PERSON
161210818053 12-10 22:09 12100 NORMANDY BLVD 13 SUSPICIOUS PERSON
161210818069 12-10 22:09 J TURNER BUTLER BLVD AND S KERNAN BLVD 1050 TRAFFIC STOP
161210818045 12-10 22:09 5200 BOILARD DR 63 DISPUTE
161210818066 12-10 22:08 AVENUE B AND W EDGEWOOD AVE 1 IMPAIRED/DRUNK DRIVER
161210818043 12-10 22:07 10500 DODD RD 1066 CANCEL
161210818046 12-10 22:07 1600 W 10TH ST 33 DISCHARGING OF FIREARM
161210818057 12-10 22:06 10000 SKINNER LAKE DR 54 ILLEGALLY PARKED CAR
161210818065 12-10 22:06 KENMORE ST AND ORLANDO ST 33 DISCHARGING OF FIREARM
161210818042 12-10 22:06 4400 E TOUCHTON RD 64 NOISE COMPLAINT
161210818062 12-10 22:06 9800 HUTCHINSON PARK DR 63 DISPUTE
161210818054 12-10 22:04 J TURNER BUTLER BLVD AND BELFORT RD 16 ROAD OBSTRUCTION
161210818049 12-10 22:00 2000 PALAFOX ST 16 ROAD OBSTRUCTION
161210818035 12-10 21:56 6800 OLD KINGS RD 27 MENTALLY ILL PERSON
161210818029 12-10 21:54 900 DUSKIN DR 1066 CANCEL
161210818034 12-10 21:54 8000 HOLLYRIDGE RD 22 DOMESTIC
161210818036 12-10 21:50 BAKER AVE AND COMMONWEALTH AVE 63 DISPUTE
161210818016 12-10 21:47 S I95 EXPWY AND GOLFAIR BLVD 13 SUSPICIOUS PERSON
161210818033 12-10 21:46 E 7TH ST AND N LIBERTY ST 4 AUTO CRASH
161210818028 12-10 21:43 5700 IRIS BLVD 3 53 HIT AND RUN CRASH W/FIRE
161210818027 12-10 21:41 11800 ATLANTIC BLVD 5582 HOLDING ONE FOR SHOPLIFTING
161210818026 12-10 21:40 11800 ATLANTIC BLVD 5582 HOLDING ONE FOR SHOPLIFTING
161210818018 12-10 21:35 6600 BENNETT CREEK DR 64 NOISE COMPLAINT
161210818023 12-10 21:35 7100 DIAMOND HEAD RD 63 DISPUTE
161210818019 12-10 21:34 500 E BAY ST 36 MEET AN OFFICER
161210818020 12-10 21:34 4000 HODGES BLVD 63 DISPUTE
161210818015 12-10 21:34 2200 MAYPORT RD 19 ANIMAL INVESTIGATION
161210817982 12-10 21:33 1400 DUNN AVE 2288 DOMESTIC DISPUTE WITH/ASSAULT
161210818012 12-10 21:32 3600 ST JOHNS AVE 13 SUSPICIOUS PERSON
161210818014 12-10 21:30 WES/PENS 1050 TRAFFIC STOP
161210818003 12-10 21:29 8600 HERLONG RD 22 DOMESTIC
161210818013 12-10 21:28 J TURNER BUTLER BLVD AND S SAN PABLO RD 1050 TRAFFIC STOP
161210817996 12-10 21:27 2700 W LANTANA LAKES DR 1066 CANCEL
161210818009 12-10 21:24 N NEWNAN ST AND E FORSYTH ST 4 53 TRAFFIC CRASH PERSON INJURED
161210818004 12-10 21:24 S I95 EXPWY AND ZOO PKWY 4 AUTO CRASH
161210818005 12-10 21:24 7900 N PEARL ST 64 NOISE COMPLAINT
161210817913 12-10 21:23 11400 QUAILHOLLOW DR 21C BURGLARY CONVEYANCE
161210817984 12-10 21:22 100 BAISDEN RD 63 DISPUTE
161210817991 12-10 21:22 AVENUE B AND W EDGEWOOD AVE 4 53 TRAFFIC CRASH PERSON INJURED
161210818001 12-10 21:22 E SEFA CIR AND CARDINAL BLVD 1066 CANCEL
161210818000 12-10 21:20 5800 BLACKTHORN RD 2288 DOMESTIC DISPUTE WITH/ASSAULT
161210817999 12-10 21:18 200 E 7TH ST 60 SUICIDE OR ATTEMPT
161210817994 12-10 21:17 5300 ASTRAL ST 63 DISPUTE
161210817945 12-10 21:16 8700 ATLANTIC BLVD 3 HIT AND RUN CRASH
161210817995 12-10 21:15 ARGYLE FOREST BLVD AND CHESWICK OAK AVE 1050 TRAFFIC STOP
161210817976 12-10 21:14 500 LANE AVE 0 13 ARMED SUSPICIOUS PERSON
161210817993 12-10 21:13 ALTA/I 295NB 1050 TRAFFIC STOP
161210817992 12-10 21:11 PHILLIPS HWY AND W UNIVERSITY BLVD 4 AUTO CRASH
161210817974 12-10 21:11 N MAIN ST AND W 8TH ST 2 IMPAIRED/INTOXICATED
161210817855 12-10 21:11 6200 PEACOCK RIDGE DR 14 VANDALISM
161210817953 12-10 21:10 2000 HYDE PARK RD 63 DISPUTE
161210817986 12-10 21:09 1000 MONUMENT RD 60 SUICIDE OR ATTEMPT
161210817980 12-10 21:05 900 ARDMORE ST 2288 DOMESTIC DISPUTE WITH/ASSAULT
161210817971 12-10 21:05 10600 MONACO DR 0 63 ARMED DISPUTE
161210817973 12-10 21:03 LEM TURNER RD AND PALMDALE ST 0 60 SUICIDE THREAT W/WEAPON
161210817975 12-10 21:03 I 295 SB/HECKSCHER DR 1050 TRAFFIC STOP
161210817922 12-10 21:01 10900 S OAK RIDGE DR 11 ABANDONED VEHICLE
161210817967 12-10 21:01 100 N PEARL ST 63 DISPUTE
161210817939 12-10 20:58 1000 E 24TH ST 63 DISPUTE
161210817963 12-10 20:57 3600 RAINES AVE 10R VEHICLE THEFT RECOVERY
161210817946 12-10 20:57 3700 RICHMOND ST 13 SUSPICIOUS PERSON
161210817960 12-10 20:56 HECKSCHER/ZOO PKWY 1050 TRAFFIC STOP
161210817957 12-10 20:55 5600 HOLLY BELL DR 64 NOISE COMPLAINT
161210817958 12-10 20:54 3600 RAINES AVE 10R VEHICLE THEFT RECOVERY
161210817934 12-10 20:54 10300 ATLANTIC BLVD 63 DISPUTE
161210817955 12-10 20:53 103RD ST AND NEW WORLD AVE 4 53 TRAFFIC CRASH PERSON INJURED
161210817949 12-10 20:52 1000 LE BRUN DR 73 DRUG INVESTIGATION
161210817951 12-10 20:49 E KEN KNIGHT DR AND W MONCRIEF RD 13 SUSPICIOUS PERSON
161210817948 12-10 20:49 N I295 EXPWY AND J TURNER BUTLER BLVD 96 ASSIST MOTORIST
161210817929 12-10 20:48 3100 S ST JOHNS BLUFF RD 37 UNVERIFIED 911 CALL
161210817944 12-10 20:48 1200 WINTHROP ST 37 UNVERIFIED 911 CALL
161210817943 12-10 20:47 4500 SOUTHSIDE BLVD 38 TRAFFIC ASSIGNMENT
161210817941 12-10 20:47 COMAN/DUVAL STATION 1050 TRAFFIC STOP
161210817938 12-10 20:46 W 8TH ST AND DOCTOR ROY BAKER ST 1050 TRAFFIC STOP
161210817931 12-10 20:45 1000 N LANE AVE 76 ASSIST OTHER AGENCY
161210817927 12-10 20:45 13400 ISLA VISTA DR 1066 CANCEL
161210817935 12-10 20:43 10500 LEM TURNER RD 63 DISPUTE
161210817926 12-10 20:43 MONUMENT RD AND REGENCY SQUARE BLVD 77 WELL BEING CHECK
161210817857 12-10 20:41 12900 HOOD LANDING RD 3 HIT AND RUN CRASH
161210817918 12-10 20:40 9700 TOUCHTON RD 33 DISCHARGING OF FIREARM
161210817915 12-10 20:39 2200 MAYPORT RD 2288 DOMESTIC DISPUTE WITH/ASSAULT
161210817932 12-10 20:38 6700 DUNN AVE 13 SUSPICIOUS PERSON
161210817928 12-10 20:37 3600 RAINES AVE 76 ASSIST OTHER AGENCY
161210817910 12-10 20:36 2600 N OLD MIDDLEBURG RD 88 ASSAULT
161210817901 12-10 20:36 5300 ASTRAL ST 2 63 DISPUTE IMPAIRED/INTOXICATED
161210817924 12-10 20:35 NORMANDY BLVD AND CASSAT AVE 4 53 TRAFFIC CRASH PERSON INJURED
161210817853 12-10 20:35 5500 VILLAGE POND CIR 6388 DISPUTE WITH ASSAULT
161210817923 12-10 20:34 4600 RIVER CITY DR 13 SUSPICIOUS PERSON
161210817914 12-10 20:33 ROGERS AVE AND PORTSMOUTH AVE 13 SUSPICIOUS PERSON
161210817893 12-10 20:33 9700 SPOTTSWOOD RD 13 SUSPICIOUS PERSON
161210817921 12-10 20:33 I10 EAST 88 ASSAULT
161210817876 12-10 20:32 400 E BAY ST 54 ILLEGALLY PARKED CAR
161210817920 12-10 20:32 5900 110TH ST 16 ROAD OBSTRUCTION
161210817916 12-10 20:31 2000 N MARKET ST 63 DISPUTE
161210817911 12-10 20:30 800 BROWARD RD 76 ASSIST OTHER AGENCY
161210817904 12-10 20:30 3700 LORETTO RD 13 SUSPICIOUS PERSON
161210817886 12-10 20:30 100 W UNION ST 63 DISPUTE
161210817908 12-10 20:28 2300 HAPPY LN 26C CARDIAC AED
161210817909 12-10 20:28 200 W. UNION ST. 50 FOUND/ABANDONED PROPERTY
161210817875 12-10 20:28 6800 OLD KINGS RD 6388 DISPUTE WITH ASSAULT
161210817906 12-10 20:26 N I95 EXPWY AND W 8TH ST 3 HIT AND RUN CRASH
161210817902 12-10 20:25 400 PECAN PARK RD 63 DISPUTE
161210817903 12-10 20:25 5000 CLEVELAND RD 13 SUSPICIOUS PERSON
161210817890 12-10 20:24 CALIFORNIA AVE AND BUTTERCUP ST 63 DISPUTE
161210817877 12-10 20:24 400 PALMETTO ST 37 UNVERIFIED 911 CALL
161210817899 12-10 20:23 POST ST AND ACOSTA ST 13 SUSPICIOUS PERSON
161210817895 12-10 20:23 8700 NEWTON RD 60 SUICIDE OR ATTEMPT
161210817897 12-10 20:23 NORMANDY BLVD AND S I295 EXPWY 96 ASSIST MOTORIST
161210817874 12-10 20:22 W UNION ST AND N PEARL ST 16 ROAD OBSTRUCTION
161210817884 12-10 20:22 11100 SAN JOSE BLVD 76 ASSIST OTHER AGENCY
161210817889 12-10 20:22 1400 KINGS RD 61 FIGHT
161210817892 12-10 20:21 PHOENIX AVE AND E 11TH ST 1050 TRAFFIC STOP
161210817825 12-10 20:21 MINDANAO DR AND S INDIES DR 4 AUTO CRASH
161210817873 12-10 20:19 800 BRANDYWINE ST 64 NOISE COMPLAINT
161210817887 12-10 20:19 POST ST AND GOODWIN ST 1050 TRAFFIC STOP
161210817882 12-10 20:16 900 W U S 90 HWY 63 DISPUTE
161210817872 12-10 20:12 9500 N REGENCY SQUARE BLVD 9J THEFT JUST OCCURRED
161210817843 12-10 20:12 11200 BEACH BLVD 63 DISPUTE
161210817869 12-10 20:11 1400 WINNEBAGO AVE 64 NOISE COMPLAINT
161210817870 12-10 20:10 LOSCO RD AND PERCHERON DR 33 DISCHARGING OF FIREARM
161210817871 12-10 20:10 I 95 SB/AIRPORT 1050 TRAFFIC STOP
161210817828 12-10 20:10 1000 S US 301 HWY 63 DISPUTE
161210817827 12-10 20:10 9000 SOUTHSIDE BLVD 63 DISPUTE
161210817838 12-10 20:09 NORMANDY BLVD AND LENOX AVE 4 AUTO CRASH
161210817805 12-10 20:07 11200 BEACH BLVD 63 DISPUTE
161210817858 12-10 20:07 9600 MC DANIELS DR 76 ASSIST OTHER AGENCY
161210817860 12-10 20:06 7600 N STRATO RD 63 DISPUTE
161210817856 12-10 20:06 3300 MONUMENT RD 33 DISCHARGING OF FIREARM
161210817865 12-10 20:06 BEACH BLVD AND DISCOVERY WAY 1050 TRAFFIC STOP
161210817863 12-10 20:06 OAKCOVE LN AND MERRILL RD 1066 CANCEL
161210817864 12-10 20:05 14300 BEACH BLVD 76 ASSIST OTHER AGENCY
161210817794 12-10 20:04 200 BEALL CT 22 DOMESTIC
161210817851 12-10 19:59 COLLINS RD AND BLANDING BLVD 4 AUTO CRASH
161210817840 12-10 19:58 8900 JOHNSON CT 2 63 DISPUTE IMPAIRED/INTOXICATED
161210817845 12-10 19:58 7200 MERRILL RD 9J THEFT JUST OCCURRED
161210817852 12-10 19:58 PLAYA WAY AND UNIVERSITY BLVD 13 SUSPICIOUS PERSON
161210817850 12-10 19:57 GRAYFIELD DR AND COLLINS RD 4 AUTO CRASH
161210817848 12-10 19:57 13300 BEACH BLVD 96 ASSIST MOTORIST
161210817837 12-10 19:56 LENOX AVE AND GARTH AVE 4 AUTO CRASH
161210817842 12-10 19:56 100 N PEARL ST 63 DISPUTE
161210817799 12-10 19:55 400 CENTURY 21 DR 22 DOMESTIC
161210817832 12-10 19:55 4200 SOUTHSIDE BLVD 2 63 DISPUTE IMPAIRED/INTOXICATED
161210817841 12-10 19:54 500 BERT MAXWELL RD 73 DRUG INVESTIGATION
161210817839 12-10 19:53 W 10TH ST AND N MAIN ST 1050 TRAFFIC STOP
161210817823 12-10 19:52 1100 ARCO DR 37 UNVERIFIED 911 CALL
161210817836 12-10 19:52 3100 POST ST 1050 TRAFFIC STOP
161210817834 12-10 19:52 BEACH BLVD AND HODGES BLVD 1050 TRAFFIC STOP
161210817833 12-10 19:51 4200 DUNN AVE 1050 TRAFFIC STOP
161210817831 12-10 19:51 KING ST AND COLLEGE ST 2 IMPAIRED/INTOXICATED
161210817812 12-10 19:50 5700 ROYALTY RD 63 DISPUTE
161210817826 12-10 19:49 10200 OLD ST AUGUSTINE RD 76 ASSIST OTHER AGENCY
161210817807 12-10 19:47 12100 HECKSCHER DR 96 ASSIST MOTORIST
161210817824 12-10 19:47 PARK ST AND GOODWIN ST 1050 TRAFFIC STOP
161210817792 12-10 19:46 3100 W 6TH ST 63 DISPUTE
161210817822 12-10 19:46 MERL/WALDEN 1050 TRAFFIC STOP
161210817814 12-10 19:44 W UNIVERSITY BLVD AND TERRY RD 4 AUTO CRASH
161210817815 12-10 19:44 8200 BEACH BLVD 1066 CANCEL
161210817816 12-10 19:44 1100 BRIDIER ST 63 DISPUTE
161210817793 12-10 19:43 10200 SCOTT MILL RD 13 SUSPICIOUS PERSON
161210817809 12-10 19:43 1100 BRIDIER ST 37 UNVERIFIED 911 CALL
161210817813 12-10 19:41 1100 BROWARD RD 1050 TRAFFIC STOP
161210817810 12-10 19:41 N I295 EXPWY AND S I95 EXPWY 4 AUTO CRASH
161210817782 12-10 19:41 7700 S CRANBERRY LN 6388 DISPUTE WITH ASSAULT
161210817808 12-10 19:41 6700 ROLLING STREAM DR 21CJ BURGLARY CONVEYANCE JUST OCCURRED
161210817769 12-10 19:40 300 SOUTHERN ROSE DR 54 ILLEGALLY PARKED CAR
161210817803 12-10 19:39 6700 N MAIN ST 49 REPORT TO HOSPITAL
161210817804 12-10 19:36 800 BERT RD 63 DISPUTE
161210817741 12-10 19:34 3700 UNIVERSITY CLUB BLVD 21C BURGLARY CONVEYANCE
161210817780 12-10 19:34 6300 LITMAN DR 22 DOMESTIC
161210817788 12-10 19:34 8500 STOCKS RD 60 SUICIDE OR ATTEMPT
161210817779 12-10 19:34 9500 APPLECROSS RD 4 AUTO CRASH
161210817797 12-10 19:33 7500 WILSON BLVD 96 ASSIST MOTORIST
161210817795 12-10 19:33 100 SECONDINA RD 76 ASSIST OTHER AGENCY
161210817796 12-10 19:32 ROOSEVELT EXPWY AND RANDALL ST 1050 TRAFFIC STOP
161210817790 12-10 19:32 1500 S LANE AVE 26C CARDIAC AED
161210817783 12-10 19:31 8900 4TH AVE 60 SUICIDE OR ATTEMPT
161210817789 12-10 19:31 5900 PHILLIPS HWY 10R VEHICLE THEFT RECOVERY
161210817791 12-10 19:31 5000 NORMANDY BLVD 13 SUSPICIOUS PERSON
161210817787 12-10 19:30 11800 ATLANTIC BLVD 18 PERSON SHOT
161210817784 12-10 19:30 11000 E RIVERPORT DR 1066 CANCEL
161210817785 12-10 19:30 8500 HOMEPLACE DR 60 SUICIDE OR ATTEMPT
161210817781 12-10 19:26 DANSON ST AND W 13TH ST 10R VEHICLE THEFT RECOVERY
161210817778 12-10 19:25 S I95 EXPWY AND DUNN AVE 96 ASSIST MOTORIST
161210817775 12-10 19:23 500 MARTIN ST 13 SUSPICIOUS PERSON
161210817761 12-10 19:22 6000 WAKULLA SPRINGS RD 64 NOISE COMPLAINT
161210817776 12-10 19:22 PHOENIX AVE AND E 21ST ST 1050 TRAFFIC STOP
161210817774 12-10 19:22 200 RIVERSIDE AVE 4 53 TRAFFIC CRASH PERSON INJURED
161210817720 12-10 19:22 12000 MC CORMICK RD 22 DOMESTIC
161210817768 12-10 19:20 6300 RESTLAWN DR 1050 TRAFFIC STOP
161210817766 12-10 19:18 900 MIKAEL AVE 21R BURGLARY RESIDENCE
161210817765 12-10 19:18 MORSE AVE AND SEABOARD AVE 56 JUVENILE COMPLAINT
161210817682 12-10 19:18 5200 ATLANTIC BLVD 14C VANDALISM CONVEYANCE
161210817764 12-10 19:17 HARTS/BERTHA 1050 TRAFFIC STOP
161210817763 12-10 19:17 5300 BROADWAY AVE 22 DOMESTIC
161210817762 12-10 19:16 YELLOW BLUFF/VICTORUA LAKES 1050 TRAFFIC STOP
161210817759 12-10 19:15 5900 CHARLES D EVERS DR 13 SUSPICIOUS PERSON
161210817686 12-10 19:15 6900 ROUNDLEAF DR 10 VEHICLE THEFT
161210817754 12-10 19:14 10300 SOUTHSIDE BLVD 13 SUSPICIOUS PERSON
161210817747 12-10 19:14 3500 EMERSON ST 63 DISPUTE
161210817755 12-10 19:13 KINGS RD AND N MYRTLE AVE 1050 TRAFFIC STOP
161210817664 12-10 19:12 1000 DUNN AVE 63 DISPUTE
161210817750 12-10 19:11 N LEE ST AND W FORSYTH ST 35 OFFICER NEEDS ASSIST
161210817749 12-10 19:11 6700 GOLDILOCKS LN 1050 TRAFFIC STOP
161210817746 12-10 19:09 7700 PHILLIPS HWY 1050 TRAFFIC STOP
161210817737 12-10 19:07 N I295 EXPWY AND GATE PKWY 1066 CANCEL
161210817742 12-10 19:07 5300 DEVRON DR 1066 CANCEL
161210817740 12-10 19:05 STOCKTON ST AND E I10 EXPWY 1050 TRAFFIC STOP
161210817738 12-10 19:05 MAIN/OLD BAY 1050 TRAFFIC STOP
161210817730 12-10 19:05 1800 UNIVERSITY BLVD 27 MENTALLY ILL PERSON
161210817731 12-10 19:04 7000 COLLINS RD 4 AUTO CRASH
161210817729 12-10 19:04 200 N ST JOHNS BLUFF RD 54 ILLEGALLY PARKED CAR
161210817726 12-10 19:03 8200 103RD ST 95ID IDENTITY THEFT
161210817734 12-10 19:03 N I295 EXPWY AND N DAMES POINT BRG 1 IMPAIRED/DRUNK DRIVER
161210817718 12-10 19:03 600 CASSAT AVE 3 HIT AND RUN CRASH
161210817677 12-10 19:03 9300 BAYMEADOWS RD 4 AUTO CRASH
161210817732 12-10 19:02 9800 ATLANTIC BLVD 33 DISCHARGING OF FIREARM
161210817728 12-10 19:02 6700 MANOTAK OAKS DR 63 DISPUTE
161210817706 12-10 19:02 5700 VILLAGE POND CIR 63 DISPUTE
161210817717 12-10 19:02 N PEARL ST AND WOODBINE ST 13 SUSPICIOUS PERSON
161210817502 12-10 19:02 8300 DIX ELLIS TRL 63 DISPUTE
161210817725 12-10 19:01 ZOO/NEW BERLIN 1050 TRAFFIC STOP
161210817673 12-10 19:01 1500 WINDLE ST 4 AUTO CRASH
161210817723 12-10 19:00 PALMDALE ST AND AUBREY AVE 1050 TRAFFIC STOP
161210817715 12-10 18:59 13200 CITY SQUARE DR 70P COUNTERFEIT IN PROGRESS
161210817719 12-10 18:59 E 24TH ST AND N MAIN ST 1050 TRAFFIC STOP
161210817675 12-10 18:58 4300 SOUTHSIDE BLVD 1066 CANCEL
161210817710 12-10 18:57 3600 S LANE AVE 63 DISPUTE
161210817713 12-10 18:57 BEACH BLVD AND S ST JOHNS BLUFF RD 1050 TRAFFIC STOP
161210817711 12-10 18:57 4100 PITTMAN DR 8 MISSING PERSON
161210817646 12-10 18:55 10200 OLD ST AUGUSTINE RD 63 DISPUTE
161210817630 12-10 18:55 N I295 EXPWY AND S I95 EXPWY 16 ROAD OBSTRUCTION
161210817707 12-10 18:55 9800 NORMANDY BLVD 4 53 TRAFFIC CRASH PERSON INJURED
161210817669 12-10 18:55 LEM TURNER RD AND DUNN AVE 4 63 CRASH INVOLVING DISPUTE
161210817704 12-10 18:53 100 W CHURCH ST 38 TRAFFIC ASSIGNMENT
161210817703 12-10 18:53 NORMANDY BLVD AND MC GIRTS POINT BLVD 4 53 TRAFFIC CRASH PERSON INJURED
161210817701 12-10 18:52 PALMDALE ST AND ORIOLE ST 1050 TRAFFIC STOP
161210817651 12-10 18:52 1700 ART MUSEUM DR 64 NOISE COMPLAINT
161210817695 12-10 18:51 6900 S CHERBOURG AVE 22 DOMESTIC
161210817696 12-10 18:51 5200 W MONCRIEF RD 1066 CANCEL
161210817699 12-10 18:51 7000 PHILLIPS HWY 1050 TRAFFIC STOP
161210817691 12-10 18:51 SOUTHSIDE CONNECTOR BLVD AND MERRILL RD 96 ASSIST MOTORIST
161210817697 12-10 18:50 7800 NORMANDY BLVD 1050 TRAFFIC STOP
161210817692 12-10 18:50 10100 BELLE RIVE BLVD 60 SUICIDE OR ATTEMPT
161210817694 12-10 18:49 11400 BEACH BLVD 73 DRUG INVESTIGATION
161210817693 12-10 18:49 CITY STATION/MAX LEGGETT 1050 TRAFFIC STOP
161210817688 12-10 18:48 500 CASSAT AVE 4 AUTO CRASH
161210817685 12-10 18:45 9500 ARGYLE FOREST BLVD 54 ILLEGALLY PARKED CAR
161210817653 12-10 18:45 11500 FRANCIS DRAKE DR 3 HIT AND RUN CRASH
161210817681 12-10 18:43 SAMARITAN WAY AND 103RD ST 16 ROAD OBSTRUCTION
161210817679 12-10 18:43 10800 NORMANDY BLVD 63 DISPUTE
161210817631 12-10 18:42 10200 N CLASSIC OAK RD 1066 CANCEL
161210817676 12-10 18:42 S CHAFFEE RD AND NORMANDY BLVD 16 ROAD OBSTRUCTION
161210817678 12-10 18:41 14200 YELLOW BLUFF RD 1050 TRAFFIC STOP
161210817674 12-10 18:39 I 95 SB/MAX LEGGETT 1050 TRAFFIC STOP
161210817670 12-10 18:38 9300 GENNA TRACE TRL 63 DISPUTE
161210817643 12-10 18:38 12000 MC CORMICK RD 13 SUSPICIOUS PERSON
161210817668 12-10 18:37 6700 N MAIN ST 26C CARDIAC AED
161210817624 12-10 18:36 OLD ST AUGUSTINE RD AND GREENLAND RD 91 TRAFFIC LIGHT/RR CROSSING MALFUNCTION
161210817655 12-10 18:35 10200 SHOPS LN 13 SUSPICIOUS PERSON
161210817618 12-10 18:34 6300 LITMAN DR 63 DISPUTE
161210817662 12-10 18:33 5300 FOXBORO RD 63 DISPUTE
161210817615 12-10 18:32 3200 DIGNAN ST 63 DISPUTE
161210817659 12-10 18:32 ATLANTIC BLVD AND KINGS AVE 91 TRAFFIC LIGHT/RR CROSSING MALFUNCTION
161210817660 12-10 18:31 RESTLAWN DR AND HELSTON DR 1050 TRAFFIC STOP
161210817635 12-10 18:29 9700 BRIGHTWOOD RD 13 SUSPICIOUS PERSON
161210817654 12-10 18:29 2800 W REGAS DR 88P ASSAULT IN PROGRESS
161210817648 12-10 18:28 RICKER RD AND S JANA LN 63 DISPUTE
161210817590 12-10 18:28 9500 BEAUCLERC TER 13 SUSPICIOUS PERSON
161210817650 12-10 18:28 3100 UNIVERSITY BLVD 5388 ASSAULT INVOLVING INJURY
161210817647 12-10 18:25 6800 NORMANDY BLVD 96 ASSIST MOTORIST
161210817642 12-10 18:24 1000 PARK ST 63 DISPUTE
161210817641 12-10 18:21 JTB/PHILLIPS 1050 TRAFFIC STOP
161210817638 12-10 18:19 CASSAT AVE AND HIGHWAY AVE 60 SUICIDE OR ATTEMPT
161210817636 12-10 18:18 N EDGEWOOD AVE AND COMMONWEALTH AVE 1050 TRAFFIC STOP
161210817632 12-10 18:18 3700 B WARD ST 63 DISPUTE
161210817634 12-10 18:17 SS CONN/I295 96 ASSIST MOTORIST
161210817570 12-10 18:16 13100 S STAFFORDSHIRE DR 19 ANIMAL INVESTIGATION
161210817573 12-10 18:16 1700 HODGES BLVD 4 AUTO CRASH
161210817613 12-10 18:16 7800 N LAURA ST 2 63 DISPUTE IMPAIRED/INTOXICATED
161210817633 12-10 18:15 CASSAT AVE AND ROSSELLE ST 1050 TRAFFIC STOP
161210817629 12-10 18:14 10300 PHILLIPS HWY 35 OFFICER NEEDS ASSIST
161210817627 12-10 18:13 NORMANDY/CHAFFEE 1050 TRAFFIC STOP
161210817626 12-10 18:12 100 DUVAL STATION 13 SUSPICIOUS PERSON
161210817625 12-10 18:12 1000 DUVAL 13 SUSPICIOUS PERSON
161210817623 12-10 18:11 ST AUGUSTINE/POWERS 1050 TRAFFIC STOP
161210817621 12-10 18:10 S I95 EXPWY AND AIRPORT RD 4 AUTO CRASH
161210817620 12-10 18:10 S I295 EXPWY AND BAYMEADOWS RD 1050 TRAFFIC STOP
161210817614 12-10 18:10 100 N DAMES POINT BRG 16 ROAD OBSTRUCTION
161210817596 12-10 18:09 10500 MONACO DR 63 DISPUTE
161210817612 12-10 18:09 COMAN RD AND E EUBANKS ST 13 SUSPICIOUS PERSON
161210817591 12-10 18:09 3500 ST JOHNS AVE 4 AUTO CRASH
161210817616 12-10 18:09 SOUTHSIDE CONN/JUST PASS MERRILL 16 ROAD OBSTRUCTION
161210817610 12-10 18:09 1400 WINNEBAGO AVE 64 NOISE COMPLAINT
161210817504 12-10 18:07 12200 ATLANTIC BLVD 9 THEFT
161210817607 12-10 18:04 7000 PHILLIPS HWY 1050 TRAFFIC STOP
161210817606 12-10 18:04 LENOX AVE AND LUNA ST 1050 TRAFFIC STOP
161210817605 12-10 18:04 100 N DAMES POINT BRG 4 53 TRAFFIC CRASH PERSON INJURED
161210817603 12-10 18:03 100 DUVAL STATION 1050 TRAFFIC STOP
161210817600 12-10 18:01 600 CASSAT AVE 0 63 ARMED DISPUTE
161210817598 12-10 17:59 S MC DUFF AVE AND HUNT ST 1050 TRAFFIC STOP
161210817550 12-10 17:59 2600 LORNA RD 63 DISPUTE
161210817593 12-10 17:58 3700 CASITAS DR 13 SUSPICIOUS PERSON
161210817595 12-10 17:58 BLANDING BLVD AND TOWNSEND RD 4 53 TRAFFIC CRASH PERSON INJURED
161210817594 12-10 17:57 2700 STARRATT 13 SUSPICIOUS PERSON
161210817579 12-10 17:57 OLD ST AUGUSTINE RD AND ATTRILL RD 4 AUTO CRASH
161210817578 12-10 17:55 8800 103RD ST 2 63 DISPUTE IMPAIRED/INTOXICATED
161210817587 12-10 17:55 3500 TOWNSEND BLVD 4 53 TRAFFIC CRASH PERSON INJURED
161210817582 12-10 17:53 2500 W 23RD ST 22 DOMESTIC
161210817585 12-10 17:51 FITZGERALD ST AND CHEROKEE ST 1050 TRAFFIC STOP
161210817583 12-10 17:50 3600 S UNIVERSITY BLVD 50 FOUND/ABANDONED PROPERTY
161210817574 12-10 17:48 SR9BS EXIT PHILLIPS RP AND PHILLIPS HWY 1066 CANCEL
161210817564 12-10 17:47 MAYPORT RD AND FAIRWAY VILLAS DR 4 AUTO CRASH
161210817576 12-10 17:47 700 MC DUFF 1050 TRAFFIC STOP
161210817568 12-10 17:46 1600 FOURAKER RD 37 UNVERIFIED 911 CALL
161210817571 12-10 17:45 5800 SAN JUAN AVE 22 DOMESTIC
161210817572 12-10 17:45 ARGLE FOREST/SPENCER TRACE DR 96 ASSIST MOTORIST
161210817556 12-10 17:44 7600 TIMBERWOOD DR 63 DISPUTE
161210817566 12-10 17:43 J TURNER BUTLER BLVD AND S KERNAN BLVD 1 IMPAIRED/DRUNK DRIVER
161210817562 12-10 17:42 100 S BUCKMAN BRG 16 ROAD OBSTRUCTION
161210817541 12-10 17:42 S HOGAN ST AND W BAY ST 63 DISPUTE
161210817561 12-10 17:40 800 BRIDIER ST 5388 ASSAULT INVOLVING INJURY
161210817559 12-10 17:39 3300 PRATHER DR 13 SUSPICIOUS PERSON
161210817499 12-10 17:38 5200 ATLANTIC BLVD 86T LOST PROPERTY (TELESERVE)
161210817553 12-10 17:37 5100 COLONIAL AVE 63 DISPUTE
161210817558 12-10 17:36 7000 PHILLIPS HWY 38 TRAFFIC ASSIGNMENT
161210817557 12-10 17:36 800 BRIDIER ST 61 FIGHT
161210817467 12-10 17:34 S MISSION HILLS DR AND MONUMENT RD 22 DOMESTIC
161210817515 12-10 17:34 9300 103RD ST 63 DISPUTE
161210817552 12-10 17:34 4700 LANNIE ROAD 88 ASSAULT
161210817464 12-10 17:33 10400 EBBITT RD 63 DISPUTE
161210817546 12-10 17:33 2100 CALJON RD 63 DISPUTE
161210817538 12-10 17:33 13500 W ASHFORD WOOD CT 4 AUTO CRASH
161210817547 12-10 17:33 PLUMMER GRANT RD AND GRACE FARMS LN 4 53 TRAFFIC CRASH PERSON INJURED
161210817455 12-10 17:32 11400 ARMSDALE RD 13 SUSPICIOUS PERSON
161210817551 12-10 17:32 KINGS/MYRTLE 1050 TRAFFIC STOP
161210817549 12-10 17:32 2200 PHILLIPS HWY 1050 TRAFFIC STOP
161210817544 12-10 17:31 N NEWNAN ST AND E UNION ST 88P ASSAULT IN PROGRESS
161210817537 12-10 17:31 NEVADA ST AND N CAHOON RD 73 DRUG INVESTIGATION
161210817545 12-10 17:31 1500 S CHAFFEE RD 38 TRAFFIC ASSIGNMENT
161210817542 12-10 17:31 5200 S DOSTIE DR 76 ASSIST OTHER AGENCY
161210817543 12-10 17:30 10500 BAYMEADOWS RD 8 MISSING PERSON
161210817539 12-10 17:27 W CHURCH ST AND N JULIA ST 1050 TRAFFIC STOP
161210817475 12-10 17:25 5600 EDENFIELD RD 63 DISPUTE
161210817472 12-10 17:25 1200 RIVERPLACE BLVD 96 ASSIST MOTORIST
161210817529 12-10 17:25 10900 BEACH BLVD 63 DISPUTE
161210817535 12-10 17:24 ATLANTIC BLVD AND BELOTE PL 4 AUTO CRASH
161210817534 12-10 17:23 1200 KINGS 16 ROAD OBSTRUCTION
161210817417 12-10 17:23 7200 MERRILL RD 73 DRUG INVESTIGATION
161210817531 12-10 17:23 I95NB/JTB 96 ASSIST MOTORIST
161210817520 12-10 17:21 4000 S VICTORIA LAKES DR 63 DISPUTE
161210817426 12-10 17:21 3700 S SAN PABLO RD 95IDT IDENTITY THEFT TELESERVE
161210817522 12-10 17:20 6300 PARK ST 63 DISPUTE
161210817521 12-10 17:19 1100 PANGOLA DR 63 DISPUTE
161210817501 12-10 17:16 6300 DAVID DR 22 DOMESTIC
161210817517 12-10 17:16 11900 BEACH BLVD 21C BURGLARY CONVEYANCE
161210817491 12-10 17:16 100 ACME ST 19 ANIMAL INVESTIGATION
161210817486 12-10 17:16 8600 COCOA AVE 63 DISPUTE
161210817519 12-10 17:15 SUNBEAM/WALKER CIR 1050 TRAFFIC STOP
161210817505 12-10 17:15 2600 N MAIN ST 63 DISPUTE
161210817516 12-10 17:14 GOLFAIR/95 16 ROAD OBSTRUCTION
161210817509 12-10 17:14 500 N JULIA ST 37 UNVERIFIED 911 CALL
161210817512 12-10 17:13 100 S CENTER ST 96 ASSIST MOTORIST
161210817507 12-10 17:13 500 BAISDEN RD 63 DISPUTE
161210817487 12-10 17:10 2200 N OLD MIDDLEBURG RD 37 UNVERIFIED 911 CALL
161210817497 12-10 17:08 5400 NORWOOD AVE 2 63 DISPUTE IMPAIRED/INTOXICATED
161210817500 12-10 17:08 E STATE ST AND N MARKET ST 96 ASSIST MOTORIST
161210817488 12-10 17:08 MONCRIEF RD AND N MYRTLE AVE 2288 DOMESTIC DISPUTE WITH/ASSAULT
161210817466 12-10 17:07 MONCRIEF RD AND W 45TH ST 49 REPORT TO HOSPITAL
161210817384 12-10 17:03 4100 HARBOR VIEW DR 64 NOISE COMPLAINT
161210817461 12-10 17:01 1300 GROTHE ST 73 DRUG INVESTIGATION
161210817490 12-10 17:00 I10 EB/PAST 301 96 ASSIST MOTORIST
161210817483 12-10 16:58 E UNION ST AND N NEWNAN ST 16 ROAD OBSTRUCTION
161210817478 12-10 16:54 10600 MONACO DR 18 PERSON SHOT
161210817477 12-10 16:54 N JULIA ST AND W FORSYTH ST 1050 TRAFFIC STOP
161210817453 12-10 16:53 500 S LANE AVE 2288 DOMESTIC DISPUTE WITH/ASSAULT
161210817443 12-10 16:52 5500 RICKER RD 63 DISPUTE
161210817463 12-10 16:50 W UNIVERSITY BLVD AND ST AUGUSTINE RD 2 63 DISPUTE IMPAIRED/INTOXICATED
161210817456 12-10 16:48 5600 N FARGO DR 14 VANDALISM
161210817425 12-10 16:47 10500 ATLANTIC BLVD 4 AUTO CRASH
161210817462 12-10 16:47 900 301 96 ASSIST MOTORIST
161210817460 12-10 16:47 9000 LEICESTERSHIRE CT 37 UNVERIFIED 911 CALL
161210817451 12-10 16:46 8300 E PRINCETON SQUARE BLVD 63 DISPUTE
161210817457 12-10 16:45 1200 WILLOWBRANCH AVE 21C BURGLARY CONVEYANCE
161210817452 12-10 16:45 3500 W HIGHLAND GLEN WAY 60 SUICIDE OR ATTEMPT
161210817454 12-10 16:45 CAHOON RD AND DEVOE ST 4 53 TRAFFIC CRASH PERSON INJURED
161210817448 12-10 16:42 10900 SAN JOSE BLVD 5582 HOLDING ONE FOR SHOPLIFTING
161210817446 12-10 16:41 13200 CITY STATION DR 9P THEFT IN PROGRESS
161210817440 12-10 16:41 N I95 EXPWY AND STAUGEXIT N I95 RP 9T THEFT (TELESERVE)
161210817437 12-10 16:41 12400 BISCAYNE BLVD 63 DISPUTE
161210817444 12-10 16:40 4400 ROOSEVELT BLVD 2 63 DISPUTE IMPAIRED/INTOXICATED
161210817369 12-10 16:40 BEACH BLVD AND DESALVO RD 14C VANDALISM CONVEYANCE
161210817293 12-10 16:40 11700 MCCORMICK RD 21C BURGLARY CONVEYANCE
161210817435 12-10 16:39 100 N PEARL ST 63 DISPUTE
161210817439 12-10 16:37 9500 ARLINGTON EXPWY 82 SHOPLIFTER
161210817307 12-10 16:35 2600 UNIVERSITY BLVD 13 SUSPICIOUS PERSON
161210817434 12-10 16:35 7700 GATE PKWY 38 TRAFFIC ASSIGNMENT
161210817421 12-10 16:33 11700 MARINA DR 14BP VANDALISM BUSINESS IN PROGRESS
161210817418 12-10 16:33 BEACHWOOD BLVD AND MARINA DR 14BP VANDALISM BUSINESS IN PROGRESS
161210817430 12-10 16:32 E I10 EXPWY AND CASSAT AVE 1050 TRAFFIC STOP
161210817376 12-10 16:32 PICKETTVILLE RD AND W BEAVER ST 1066 CANCEL
161210817419 12-10 16:30 DEVOE ST AND GARFIELD AVE 4 63 CRASH INVOLVING DISPUTE
161210817414 12-10 16:29 700 E 5TH ST 63 DISPUTE
161210817400 12-10 16:28 100 W 23RD ST 3388 DISCHARGING FIREARM AT PERSON
161210817409 12-10 16:28 6600 N MAIN ST 63 DISPUTE
161210817416 12-10 16:26 S I95 EXPWY 4 AUTO CRASH
161210817413 12-10 16:25 12500 GILLESPIE AVE 12 RECKLESS DRIVER
161210817415 12-10 16:25 9500 ARLINGTON EXPWY 13 SUSPICIOUS PERSON
161210817406 12-10 16:24 11700 CAROLWOOD LN 63 DISPUTE
161210817402 12-10 16:24 YOUNGERMAN CIR AND BLANDING BLVD 4 AUTO CRASH
161210817412 12-10 16:23 I10WB/350 1050 TRAFFIC STOP
161210817394 12-10 16:22 7500 W GINGER TEA TRL 21R BURGLARY RESIDENCE
161210817407 12-10 16:19 1300 BELVEDERE AVE 1066 CANCEL
161210817405 12-10 16:16 7600 103RD ST 54 ILLEGALLY PARKED CAR
161210817399 12-10 16:13 W 64TH ST AND N MAIN ST 39 WATER/VESSEL ACCIDENT
161210817401 12-10 16:13 W I10 EXPWY AND S US 301 HWY 96 ASSIST MOTORIST
161210817386 12-10 16:11 500 CHAFFEE POINT BLVD 63 DISPUTE
161210817398 12-10 16:11 300 BULLS BAY HWY 13 SUSPICIOUS PERSON
161210817397 12-10 16:10 SOUTHSIDE BLVD AND PHILLIPS HWY 13 SUSPICIOUS PERSON
161210817396 12-10 16:09 7100 NORMANDY 1050 TRAFFIC STOP
161210817357 12-10 16:09 400 CENTURY 21 DR 63 DISPUTE
161210817390 12-10 16:08 5000 ALPHA AVE 19 ANIMAL INVESTIGATION
161210817301 12-10 16:07 6200 COLUMBINE DR 22 DOMESTIC
161210817389 12-10 16:06 10500 MONACO DR 33 DISCHARGING OF FIREARM
161210817361 12-10 16:06 COMMONWEALTH AVE AND DETROIT ST 27 MENTALLY ILL PERSON
161210817388 12-10 16:06 13700 BEACH BLVD 9 THEFT
161210817385 12-10 16:06 14200 HOLLINGS ST 76 ASSIST OTHER AGENCY
161210817378 12-10 16:03 7500 DOVE RD 79 OBSCENE / THREAT CALL OR LETTER
161210817382 12-10 16:03 7200 NORMANDY BLVD 13 SUSPICIOUS PERSON
161210817336 12-10 16:01 KINGS RD AND N MYRTLE AVE 38 TRAFFIC ASSIGNMENT
161210817368 12-10 15:59 4000 WOODLEY CREEK RD 22 DOMESTIC
161210817379 12-10 15:58 PECAN PARK FLEA 96 ASSIST MOTORIST
161210817373 12-10 15:56 1100 IMESON PARK BLVD 13 SUSPICIOUS PERSON
161210817372 12-10 15:55 JTB/ SOUTHSIDE BLVD 96 ASSIST MOTORIST
161210817261 12-10 15:53 1700 ART MUSEUM DR 4 AUTO CRASH
161210817367 12-10 15:53 13000 PRITCHARD RD 1050 TRAFFIC STOP
161210817365 12-10 15:52 S MC DUFF AVE AND LENOX AVE 1050 TRAFFIC STOP
161210817364 12-10 15:52 9200 N REGENCY SQUARE BLVD 1050 TRAFFIC STOP
161210817363 12-10 15:52 1500 E 15TH ST 63 DISPUTE
161210817356 12-10 15:51 13100 ATLANTIC BLVD 2 63 DISPUTE IMPAIRED/INTOXICATED
161210817335 12-10 15:51 13100 ATLANTIC BLVD 2 63 DISPUTE IMPAIRED/INTOXICATED
161210817297 12-10 15:51 E 59TH ST AND BUFFALO AVE 4 AUTO CRASH
161210817345 12-10 15:50 2600 DEAN RD 14 VANDALISM
161210817350 12-10 15:49 13700 BEACH BLVD 9 THEFT
161210817331 12-10 15:48 10900 LEM TURNER RD 9T THEFT (TELESERVE)
161210817354 12-10 15:47 900 MONUMENT RD 57 PERSON CALLING FOR HELP
161210817359 12-10 15:46 3100 FITZGERALD ST 13 SUSPICIOUS PERSON
161210817355 12-10 15:45 10200 RIVER COAST DR 4 AUTO CRASH
161210817342 12-10 15:45 300 WOODLAWN AVE 1066 CANCEL
161210817352 12-10 15:44 301NB/ATI10 13 SUSPICIOUS PERSON
161210817338 12-10 15:44 J TURNER BUTLER BLVD AND S I295 EXPWY 4 AUTO CRASH
161210817340 12-10 15:44 ARLINGTON RD AND ROGERO RD 0 13 ARMED SUSPICIOUS PERSON
161210817343 12-10 15:41 9300 103RD ST 63 DISPUTE
161210817329 12-10 15:40 7200 S OLD KINGS RD 9 THEFT
161210817341 12-10 15:40 5000 N PEARL ST 22 DOMESTIC
161210817337 12-10 15:37 1100 EVERGREEN AVE 1050 TRAFFIC STOP
161210817328 12-10 15:34 S I95 EXPWY AND SAN MARCO BLVD 16 ROAD OBSTRUCTION
161210817333 12-10 15:33 PRITCHARD RD AND W CISCO DR 1050 TRAFFIC STOP
161210817321 12-10 15:32 3800 CROWN POINT RD 56 JUVENILE COMPLAINT
161210817314 12-10 15:32 400 E BAY ST 54 ILLEGALLY PARKED CAR
161210817327 12-10 15:31 10800 LEM TURNER 16 ROAD OBSTRUCTION
161210817292 12-10 15:31 6700 BEACH BLVD 63 DISPUTE
161210817295 12-10 15:31 BELFORT RD AND TOUCHTON RD 27 MENTALLY ILL PERSON
161210817325 12-10 15:30 1600 WINDLE ST 63 DISPUTE
161210817257 12-10 15:30 8000 N CONGAREE CT 0 63 ARMED DISPUTE
161210817323 12-10 15:29 PHYLLIS ST AND JAMES ST 13 SUSPICIOUS PERSON
161210817310 12-10 15:29 500 E BAY ST 9T THEFT (TELESERVE)
161210817326 12-10 15:29 4700 RIVER CITY DR 17 PERSON DOWN OR SICK
161210817289 12-10 15:29 1900 MACLEAN RD 14R VANDALISM RESIDENCE
161210817240 12-10 15:28 1100 RIVER OAKS RD 3 HIT AND RUN CRASH
161210817320 12-10 15:27 BEACH BLVD AND STATION CREEK RD 4 AUTO CRASH
161210817318 12-10 15:26 1200 W 5TH ST 3 HIT AND RUN CRASH
161210817316 12-10 15:26 6800 ROOSEVELT BLVD 76 ASSIST OTHER AGENCY
161210817308 12-10 15:20 800 S LANE AVE 63 DISPUTE
161210817313 12-10 15:20 13200 BARTRAM PARK BLVD 38 TRAFFIC ASSIGNMENT
161210817280 12-10 15:20 2400 W 25TH ST 73 DRUG INVESTIGATION
161210817262 12-10 15:20 6400 ARGYLE FOREST BLVD 22 DOMESTIC
161210817193 12-10 15:20 5700 S BOURBON ALY 88P ASSAULT IN PROGRESS
161210817309 12-10 15:18 7200 N EUDINE DR 37 UNVERIFIED 911 CALL
161210817299 12-10 15:17 3000 DETROIT CIR 9 THEFT
161210817300 12-10 15:15 N US 301 HWY AND MARTIN LUTHER KING JR DR 13 SUSPICIOUS PERSON
161210817283 12-10 15:14 1100 DETROIT ST 14RP VANDALISM RESIDENCE IN PROGRESS
161210817279 12-10 15:14 2800 STRATTON RD 63 DISPUTE
161210817306 12-10 15:13 S I95 EXPWY AND EMERSON ST 1050 TRAFFIC STOP
161210817302 12-10 15:12 4600 RIVER CITY DR 4 AUTO CRASH
161210817275 12-10 15:09 5700 BOQUERON CT 11 ABANDONED VEHICLE
161210817296 12-10 15:09 3400 CHARMONT DR 18 PERSON SHOT
161210817267 12-10 15:07 200 N SAN PABLO RD 63 DISPUTE
161210817186 12-10 15:07 100 N SAN PABLO RD 63 DISPUTE
161210817237 12-10 15:07 8700 ATLANTIC BLVD 3 HIT AND RUN CRASH
161210817286 12-10 15:05 BELFORT ST AND LEWIS ST 13 SUSPICIOUS PERSON
161210817229 12-10 15:05 N MAIN ST AND TALLULAH AVE 4 AUTO CRASH
161210817282 12-10 15:03 SAN JUAN AVE AND CASSAT AVE 16 ROAD OBSTRUCTION
161210817190 12-10 15:03 SOUTHSIDE SERVICE RD AND N JUPITER CT 21C BURGLARY CONVEYANCE
161210817274 12-10 15:02 ATLANTIC BLVD AND N ST JOHNS BLUFF RD 1066 CANCEL
161210817271 12-10 15:00 1700 W EDGEWOOD AVE 63 DISPUTE
161210817277 12-10 14:59 1100 LABELLE ST 63 DISPUTE
161210817269 12-10 14:56 1000 S US 301 HWY 27 MENTALLY ILL PERSON
161210817270 12-10 14:53 4100 HUNT ST 14RJ VANDALISM RESIDENCE JUST OCCURRED
161210817265 12-10 14:53 7300 MAPLE TREE DR 21CT BURGLARY CONVEYANCE TELESERVE
161210817264 12-10 14:53 2100 EVERGREEN AVE 14C VANDALISM CONVEYANCE
161210817254 12-10 14:53 300 CARAVAN CIR 5388 ASSAULT INVOLVING INJURY
161210817255 12-10 14:53 RHONE CT AND RHONE DR 13 SUSPICIOUS PERSON
161210817250 12-10 14:53 300 CARAVAN CIR 37 UNVERIFIED 911 CALL
161210817268 12-10 14:52 3700 BURNETT PARK RD 23I88 ROBBERY INDIVIDUAL W/ASSAULT
161210817259 12-10 14:51 1400 N GAILWOOD CIR 2 22 DOMESTIC DISTURBANCE
161210817236 12-10 14:50 ATLANTIC BLVD AND S KERNAN BLVD 63 DISPUTE
161210817258 12-10 14:48 10900 BEACH BLVD 1066 CANCEL
161210817232 12-10 14:47 103RD ST AND HARLOW BLVD 63 DISPUTE
161210817256 12-10 14:47 500 E BAY ST 37 UNVERIFIED 911 CALL
161210817251 12-10 14:45 4900 SUNBEAM RD 8 MISSING PERSON
161210817248 12-10 14:45 4400 TOWN CENTER PKWY 1066 CANCEL
161210817244 12-10 14:43 BARTRAM PARK BLVD AND RACETRACK RD 19 ANIMAL INVESTIGATION
161210817227 12-10 14:41 E I10 EXPWY AND S I295 EXPWY 38 TRAFFIC ASSIGNMENT
161210817249 12-10 14:40 10600 BEACH BLVD 4 AUTO CRASH
161210817218 12-10 14:39 5200 BOILARD DR 14R VANDALISM RESIDENCE
161210817239 12-10 14:39 S I295 EXPWY AND ALTA DR 4 AUTO CRASH
161210817242 12-10 14:38 S I295 EXPWY AND S DAMES POINT BRG 4 AUTO CRASH
161210817245 12-10 14:38 I295/COLLINS 1050 TRAFFIC STOP
161210817243 12-10 14:38 S I295 EXPWY AND FAYE RD 4 29 CRASH - WIRE DOWN
161210817215 12-10 14:36 1500 NORMANDY VILLAGE PKWY 5582 HOLDING ONE FOR SHOPLIFTING
161210817241 12-10 14:36 BAYMEADOWS RD AND SAN JOSE BLVD 13 SUSPICIOUS PERSON
161210817231 12-10 14:35 3500 EMERSON ST 21B BURGLARY BUSINESS
161210817223 12-10 14:35 NORMANDY BLVD AND ADAMS LAKE BLVD 19 ANIMAL INVESTIGATION
161210817234 12-10 14:34 6100 ARL RD 16 ROAD OBSTRUCTION
161210817204 12-10 14:33 5900 BRANNON AVE 22 DOMESTIC
161210817228 12-10 14:33 800 FERNWAY ST 22 DOMESTIC
161210817230 12-10 14:33 2200 W 15TH ST 21RP BURGLARY RESIDENCE IN PROGRESS
161210817226 12-10 14:29 6600 RESTLAWN DR 86 LOST PROPERTY
161210817221 12-10 14:28 14000 MT PLEASANT RD 14 VANDALISM
161210817219 12-10 14:28 4600 TOWN CROSSING DR 3 HIT AND RUN CRASH
161210817217 12-10 14:28 5700 CEDAR OAKS DR 1066 CANCEL
161210817194 12-10 14:23 9800 ATLANTIC BLVD 4 AUTO CRASH
161210817210 12-10 14:23 4700 HODGES BLVD 4 AUTO CRASH
161210817102 12-10 14:22 7000 S OLD MIDDLEBURG RD 27 MENTALLY ILL PERSON
161210817179 12-10 14:21 8100 LONE STAR RD 63 DISPUTE
161210817202 12-10 14:19 10400 ALTA DR 50 FOUND/ABANDONED PROPERTY
161210817199 12-10 14:18 SOUTHSIDE BLVD AND BAYMEADOWS RD 11 ABANDONED VEHICLE
161210817181 12-10 14:17 NORMANDY BLVD AND CECIL COMMERCE CENTER PKWY 4 AUTO CRASH
161210817200 12-10 14:16 BONNEVAL/MSTANG 1050 TRAFFIC STOP
161210817114 12-10 14:16 5800 FIRESTONE RD 22 DOMESTIC
161210817172 12-10 14:16 ARGYLE FOREST BLVD AND BLANDING BLVD 91 TRAFFIC LIGHT/RR CROSSING MALFUNCTION
161210817197 12-10 14:15 1300 PRICE ST 63 DISPUTE
161210817192 12-10 14:14 200 E ADAMS ST 1066 CANCEL
161210817168 12-10 14:13 1000 S US 301 HWY 63 DISPUTE
161210817184 12-10 14:13 SUDBURY AVE AND ANGOL PL 64 NOISE COMPLAINT
161210817041 12-10 14:12 6600 MORSE GLEN LN 63 DISPUTE
161210817188 12-10 14:11 DOCTOR ROY BAKER ST AND W 8TH ST 1050 TRAFFIC STOP
161210817187 12-10 14:10 400 W 62ND ST 76 ASSIST OTHER AGENCY
161210817025 12-10 14:10 6000 ARGYLE FOREST BLVD 9 THEFT
161210817180 12-10 14:09 E I10 EXPWY AND S US 301 HWY 13 SUSPICIOUS PERSON
161210817183 12-10 14:08 E 16TH ST AND N MAIN ST 13 SUSPICIOUS PERSON
161210817021 12-10 14:08 10600 103RD ST 14C VANDALISM CONVEYANCE
161210817178 12-10 14:08 WILLIAM MILLS ST AND BLOUNT ISLAND BLVD 63 DISPUTE
161210817115 12-10 14:07 7500 ARLINGTON EXPWY 63 DISPUTE
161210817177 12-10 14:06 BLANDING BLVD AND 103RD ST 4 AUTO CRASH
161210817167 12-10 14:06 KINKAID RD AND SUSIE ST 80 PROSTITUTION (ONLY)
161210817176 12-10 14:05 4600 SOUTHSIDE BLVD 50 FOUND/ABANDONED PROPERTY
161210817175 12-10 14:05 100 N DAMES POINT BRG 96 ASSIST MOTORIST
161210817101 12-10 14:04 9800 ATLANTIC BLVD 4 AUTO CRASH
161210817166 12-10 14:03 6800 LILLIAN RD 88J ASSAULT JUST OCCURRED
161210817174 12-10 14:03 ARGYLE FOREST BLVD AND BLANDING BLVD 38 TRAFFIC ASSIGNMENT
161210817171 12-10 14:02 CECIL COMMERCE CENTER PKWY AND 103RD ST 4 AUTO CRASH
161210816940 12-10 14:01 6100 COLLINS RD 95 FRAUD/FORGED (CHECK, ID, RX)
161210816908 12-10 14:01 9300 103RD ST 21R BURGLARY RESIDENCE
161210817169 12-10 14:00 5100 LENOX AVE 88 ASSAULT